Weather History for Wright-Patt AFB, OH

Change the Weather History Date:

Tuesday, December 4, 2012

  Actual Average Record
Temperature  
Mean Temperature 52 °F -  
Max Temperature 64 °F 43 °F 68 °F (1998)
Min Temperature 40 °F 29 °F 14 °F (2002)
Degree Days  
Heating Degree Days 13    
Growing Degree Days 2 (Base 50)    
Moisture  
Dew Point 49 °F    
Average Humidity 81    
Maximum Humidity 99    
Minimum Humidity 65    
Precipitation  
Precipitation 0.07 in - - ()
Sea Level Pressure  
Sea Level Pressure 30.06 in    
Wind  
Wind Speed 12 mph (SW)    
Max Wind Speed 21 mph    
Max Gust Speed 24 mph    
Visibility 8 miles    
Events Rain    
Averages and records for this station are not official NWS values.
T = Trace of Precipitation, MM = Missing Value Source: NWS Daily Summary

Daily Weather History Graph

Daily Weather History Graph

Search for Another Location

Airport:

Trip Planner

Search our weather history database for the weather conditions in past years. The results will help you decide how hot, cold, wet, or windy it might be!

Date:

Astronomy

Dec. 04, 2012 Rise Set
Actual Time 7:41 AM EST 5:11 PM EST
Civil Twilight 7:11 AM EST 5:41 PM EST
Nautical Twilight 6:37 AM EST 6:15 PM EST
Astronomical Twilight 6:05 AM EST 6:47 PM EST
Moon 10:57 PM EST (12/4) 11:35 AM EST (12/4)
Length of Visible Light 10h 29m
Length of Day
9h 29m
Waning Gibbous, 69% of the Moon is Illuminated
Dec 4
Waning Gibbous
Dec 6
Last Quarter
Dec 13
New
Dec 20
First Quarter
Dec 28
Full

Hourly Weather History & Observations

Time (EST) Temp. Windchill Dew Point Humidity Pressure Visibility Wind Dir Wind Speed Gust Speed Precip Events Conditions
12:55 AM 61.7 °F - 50.0 °F 65% 30.08 in 10.0 mi South 8.1 mph - N/A   Overcast
1:55 AM 60.4 °F - 49.6 °F 68% 30.08 in 10.0 mi South 12.7 mph - N/A   Mostly Cloudy
2:55 AM 60.4 °F - 49.5 °F 67% 30.07 in 10.0 mi South 12.7 mph - N/A   Mostly Cloudy
3:55 AM 60.8 °F - 49.3 °F 66% 30.06 in 10.0 mi South 15.0 mph - N/A   Mostly Cloudy
4:55 AM 60.4 °F - 49.1 °F 66% 30.05 in 10.0 mi South 15.0 mph - N/A   Mostly Cloudy
5:55 AM 59.9 °F - 48.9 °F 67% 30.05 in 10.0 mi South 11.5 mph - N/A   Overcast
6:55 AM 59.7 °F - 48.7 °F 67% 30.06 in 10.0 mi South 12.7 mph - N/A   Overcast
7:55 AM 59.5 °F - 49.1 °F 68% 30.06 in 10.0 mi South 11.5 mph - N/A   Overcast
8:05 AM 59.0 °F - 48.2 °F 67% 30.06 in 10.0 mi South 15.0 mph - N/A   Overcast
8:55 AM 60.1 °F - 49.8 °F 69% 30.06 in 10.0 mi South 16.1 mph - N/A   Mostly Cloudy
9:55 AM 62.8 °F - 51.6 °F 67% 30.06 in 10.0 mi South 15.0 mph 21.9 mph N/A   Mostly Cloudy
10:04 AM 62.6 °F - 51.8 °F 68% 30.06 in 10.0 mi South 13.8 mph - N/A   Mostly Cloudy
10:55 AM 63.9 °F - 53.1 °F 68% 30.05 in 10.0 mi South 17.3 mph - N/A   Mostly Cloudy
11:55 AM 63.5 °F - 53.8 °F 71% 30.04 in 10.0 mi SSW 18.4 mph - N/A   Mostly Cloudy
12:09 PM 64.4 °F - 53.6 °F 68% 30.03 in 10.0 mi SSW 16.1 mph - N/A   Overcast
12:20 PM 64.4 °F - 53.6 °F 68% 30.02 in 10.0 mi South 17.3 mph 23.0 mph N/A   Overcast
12:55 PM 64.2 °F - 54.5 °F 71% 30.01 in 10.0 mi SSW 16.1 mph 23.0 mph N/A   Overcast
1:07 PM 64.4 °F - 55.4 °F 73% 30.00 in 2.5 mi SSW 12.7 mph - N/A Rain Light Rain
1:13 PM 62.6 °F - 55.4 °F 77% 30.00 in 3.0 mi SSW 16.1 mph - N/A Rain Light Rain
1:52 PM 60.8 °F - 57.2 °F 88% 30.00 in 4.0 mi SSW 11.5 mph - N/A Rain Light Rain
1:55 PM 60.6 °F - 57.4 °F 89% 30.00 in 4.0 mi SSW 11.5 mph - 0.00 in Rain Light Rain
2:02 PM 60.8 °F - 57.2 °F 88% 30.00 in 6.0 mi SSW 10.4 mph - N/A Rain Light Rain
2:28 PM 60.8 °F - 57.2 °F 88% 30.00 in 5.0 mi SSW 11.5 mph - N/A Rain Light Rain
2:40 PM 60.8 °F - 57.2 °F 88% 30.00 in 5.0 mi SW 10.4 mph - N/A Rain Light Rain
2:54 PM 60.8 °F - 57.2 °F 88% 29.99 in 8.0 mi SSW 10.4 mph - N/A   Light Drizzle
2:55 PM 60.3 °F - 57.9 °F 92% 29.99 in 7.0 mi SW 10.4 mph - 0.00 in   Light Drizzle
3:12 PM 57.2 °F - 53.6 °F 88% 30.01 in 4.0 mi WNW 15.0 mph - N/A Rain Rain
3:18 PM 55.4 °F - 51.8 °F 88% 30.01 in 4.0 mi NW 20.7 mph - N/A Rain Heavy Rain
3:23 PM 53.6 °F - 51.8 °F 94% 30.01 in 4.0 mi NW 17.3 mph - N/A Rain Heavy Rain
3:52 PM 50.0 °F - 48.2 °F 94% 30.04 in 4.0 mi NNW 13.8 mph - N/A Rain Rain
3:55 PM 50.2 °F - 47.8 °F 92% 30.04 in 6.0 mi NNW 13.8 mph - 0.07 in Rain Light Rain
4:14 PM 48.2 °F - 44.6 °F 87% 30.07 in 7.0 mi NW 16.1 mph 24.2 mph N/A Rain Light Rain
4:26 PM 46.4 °F 40.1 °F 42.8 °F 87% 30.07 in 7.0 mi NNW 15.0 mph 20.7 mph N/A Rain Light Rain
4:55 PM 45.7 °F 40.2 °F 42.3 °F 88% 30.10 in 7.0 mi NW 11.5 mph - 0.00 in Rain Light Rain
5:31 PM 44.6 °F 40.2 °F 41.0 °F 87% 30.12 in 10.0 mi NNW 8.1 mph - N/A Rain Light Rain
5:55 PM 45.3 °F 41.6 °F 41.4 °F 86% 30.13 in 9.0 mi Variable 6.9 mph - 0.00 in Rain Rain
6:10 PM 44.6 °F 40.7 °F 41.0 °F 87% 30.13 in 10.0 mi NNW 6.9 mph - N/A   Light Drizzle
6:43 PM 44.6 °F 41.4 °F 41.0 °F 87% 30.15 in 10.0 mi NW 5.8 mph - N/A   Light Drizzle
6:55 PM 45.1 °F 42.0 °F 41.2 °F 86% 30.15 in 10.0 mi NW 5.8 mph - 0.00 in   Light Drizzle
7:55 PM 44.8 °F 42.4 °F 42.1 °F 90% 30.17 in 10.0 mi SW 4.6 mph - 0.00 in   Overcast
8:55 PM 43.2 °F 41.5 °F 41.2 °F 93% 30.17 in 10.0 mi SSW 3.5 mph - N/A   Mostly Cloudy
9:55 PM 40.8 °F 38.8 °F 39.4 °F 95% 30.19 in 10.0 mi SW 3.5 mph - N/A   Scattered Clouds
10:55 PM 41.2 °F 39.2 °F 40.3 °F 97% 30.20 in 10.0 mi SW 3.5 mph - N/A   Scattered Clouds
11:55 PM 41.7 °F - 41.4 °F 99% 30.20 in 10.0 mi Calm Calm - N/A   Scattered Clouds